Regional Weather Roundup
Issued by NWS Cleveland, OH

Home | Current Version | Previous Version | Text Only | Print | Product List | Glossary On
Versions: 1 2 3 4 5 6 7 8 9 10 11 12 13 14 15 16 17 18 19 20 21 22 23 24 25 26 27 28 29 30 31 32 33 34 35 36 37 38 39 40 41 42 43 44 45 46 47 48 49 50
000
ASUS41 KCLE 020102
RWRCLE
OHIO REGIONAL WEATHER ROUNDUP
NATIONAL WEATHER SERVICE CLEVELAND, OH
900 PM EDT TUE SEP 01 2015

NOTE: "FAIR" INDICATES FEW OR NO CLOUDS BELOW 12,000 FEET WITH NO
SIGNIFICANT WEATHER AND/OR OBSTRUCTIONS TO VISIBILITY.

OHZ001>008-015>018-024>027-034-035-043-044-020200-
   NORTHWEST OHIO

CITY           SKY/WX    TMP DP  RH WIND       PRES   REMARKS
DEFIANCE       CLEAR     78  70  76 SW6       30.07R
FINDLAY        PTCLDY    75  67  76 SW7       30.07S
TOLEDO EXPRESS CLEAR     78  69  73 SW8       30.06R
TOLEDO EXEC    CLEAR     80  67  64 SW8       30.06R
LIMA           MOCLDY    75  67  76 SW5       30.09S
$$

OHZ009>014-019>023-028>033-038-089-020200-
   NORTHEAST OHIO

CITY           SKY/WX    TMP DP  RH WIND       PRES   REMARKS
CLE-HOPKINS    MOCLDY    73  70  90 SE3       30.09R
CLE-LAKEFRONT  MOCLDY    80  69  69 CALM      30.06R
CUY CO. ARPT   MOCLDY    75  70  83 SE5       30.09R
LORAIN-ELYRIA  PTCLDY    74  70  87 SE3       30.08R
ASHTABULA      PTCLDY    70  68  93 CALM      30.10R
AKRON-CANTON   PTCLDY    79  66  64 CALM      30.10R
WOOSTER        PTCLDY    71  69  93 CALM      30.11R
MANSFIELD      MOCLDY    77  66  68 SW6       30.11R
YOUNGSTOWN     MOCLDY    77  66  68 N6        30.10R
$$

OHZ042-051>053-060>062-070>072-077>081-020200-
  SOUTHWEST OHIO

CITY           SKY/WX    TMP DP  RH WIND       PRES   REMARKS
CINC-COVINGTON MOCLDY    75  68  78 CALM      30.10S
CINC-LUNKEN    PTCLDY    75  69  81 CALM      30.10R
HAMILTON       PTCLDY    74  69  85 E3        30.10R
DAYTON         MOCLDY    76  66  71 CALM      30.12R
WRIGHT-PAT AFB MOCLDY    71  69  92 NE1       30.10R
DAYTON GENERAL MOCLDY    74  68  81 CALM      30.10S
WILMINGTON     PTCLDY    77  65  66 W6        30.11R
$$

OHZ036-037-039>041-045>050-054>059-063>069-073>076-082>088-020200-
  CENTRAL AND SOUTHEAST OHIO

CITY           SKY/WX    TMP DP  RH WIND       PRES   REMARKS
COLUMBUS       PTCLDY    80  67  64 W3        30.09R
OSU AIRPORT    MOCLDY    78  67  68 W6        30.10R
BOLTON FIELD   NOT AVBL
RICKENBACK AFB MOCLDY    75  65  71 CALM      30.09R
NEWARK         PTCLDY    73  70  90 CALM      30.10R
MARION         MOCLDY    77  68  73 W5        30.10R
LANCASTER      PTCLDY    72  67  84 CALM      30.11R
ZANESVILLE     PTCLDY    75  66  73 CALM      30.10R
NEW PHILLY     MOCLDY    74  69  85 CALM      30.10R
$$



USA.gov is the U.S. government's official web portal to all federal, state and local government web resources and services.